Terminal Aerodrome Forecast
Issued by NWS

Home | Current Version | Previous Version | Text Only | Print | Product List | Glossary On
Versions: 1 2 3 4 5 6 7 8 9 10 11 12 13 14 15 16 17 18 19 20 21 22 23 24 25 26 27 28 29 30
000
FTUS45 KSLC 270537
TAFBCE
TAF
KBCE 270537Z 2706/2806 16008KT P6SM SCT090 BKN150
     FM270900 20006KT P6SM VCSH SCT025 BKN060
     FM271200 17007KT 5SM -RASN SCT009 BKN025
     FM271600 20010G15KT P6SM -SHRA SCT025 BKN035
     FM280100 18005KT P6SM BKN035=

USA.gov is the U.S. government's official web portal to all federal, state and local government web resources and services.